OpenBCM V1.13 (Linux)

Packet Radio Mailbox

DB0FHN

[JN59NK Nuernberg]

 Login: GUEST





  
I0OJJ  > KEPS     30.12.24 14:23l 352 Lines 16750 Bytes #999 (0) @ AMSAT
BID : ORB24365.1
Read: DJ6UX GUEST
Subj: 2Line Orbital Elements 24365.AMSAT
Path: DB0FHN<DB0FFL<OE5XBL<OE6XPE<DB0ERF<IZ3LSV<I0OJJ
Sent: 241230/1215z @:I0OJJ.ITA.EU [Rome] obcm1.08-6-g5b69
From: I0OJJ @ I0OJJ.ITA.EU (Gustavo)
To:   KEPS @ AMSAT
X-Info: This message was generated automatically


QST de W1STR

AMSAT Orbital Elements for Amateur Satellites in TLE Format
From Orbital Analysis Office
New England Sci-Tech STEM Education Center
Natick, MA December 30, 2024
To all radio amateurs


These element sets describe the orbits of various satellites 
in use by the amateur radio community. For details see:
www.amsat.org/keplerian-elements-formats/

A daily update of element sets is available at:
www.amsat.org/tle/daily-bulletin.txt
or without bulletin text:
www.amsat.org/tle/dailytle.txt


AO-07
1 07530U 74089B   24364.81301122 -.00000029  00000-0  10678-3 0  9997
2 07530 101.9903   1.3769 0012405  71.2025 343.1341 12.53684348293798
UO-11
1 14781U 84021B   24364.30466188  .00003942  00000-0  43129-3 0  9991
2 14781  97.7319 328.2225 0008662 143.1409 217.0405 14.88350039177495
AO-27
1 22825U 93061C   24364.39270743  .00000412  00000-0  17498-3 0  9991
2 22825  98.7629  58.9537 0007702 222.6260 137.4325 14.30692306630520
FO-29
1 24278U 96046B   24364.46341692  .00000048  00000-0  83585-4 0  9997
2 24278  98.5888 273.5650 0350621  42.6194 320.1591 13.53227788400845
NOAA-15
1 25338U 98030A   24364.76138025  .00000499  00000-0  22330-3 0  9997
2 25338  98.5517  27.6632 0011267 111.1073 249.1313 14.26839537385327
GO-32
1 25397U 98043D   24364.69399853  .00000353  00000-0  17330-3 0  9999
2 25397  98.9499 334.6272 0000983   6.8514 353.2677 14.24221781375467
ISS
1 25544U 98067A   24364.87948359  .00026180  00000-0  45783-3 0  9999
2 25544  51.6381  65.7905 0005959  21.2692 338.8543 15.50438769488909
NO-44
1 26931U 01043C   24364.78052504  .00000622  00000-0  26457-3 0  9996
2 26931  67.0493 186.1244 0006467 260.4563  99.5808 14.31557225214109
SO-50
1 27607U 02058C   24364.37722888  .00004737  00000-0  62638-3 0  9990
2 27607  64.5555 340.8600 0036803  17.6310 342.6062 14.80611187185209
CO-55
1 27844U 03031E   24364.49580316  .00001084  00000-0  49361-3 0  9996
2 27844  98.6775   8.8740 0008788 301.7176  58.3146 14.23729810115575
CO-57
1 27848U 03031J   24364.01885395  .00000920  00000-0  42695-3 0  9994
2 27848  98.6803   8.5273 0008891 321.5135  38.5408 14.23102559115249
RS-22
1 27939U 03042A   24364.82588861  .00004003  00000-0  65304-3 0  9992
2 27939  98.3078 164.6191 0012011 157.2719 308.1815 14.71472246137030
NOAA-18
1 28654U 05018A   24364.74020385  .00000531  00000-0  30558-3 0  9990
2 28654  98.8592  79.9541 0013623 225.8862 134.1190 14.13468007 10881
CO-58
1 28895U 05043F   24364.63608037  .00005344  00000-0  90237-3 0  9996
2 28895  98.2244 141.3469 0016025  99.7369 260.5647 14.69762878 23371
CO-65
1 32785U 08021C   24364.49274266  .00012392  00000-0  96764-3 0  9997
2 32785  97.7696 329.0347 0012091  59.6718 300.5700 15.01209767904734
AAUSAT2
1 32788U 08021F   24363.95258619  .00082641  00000-0  21143-2 0  9996
2 32788  97.6041 347.5351 0003736 131.1817 228.9751 15.39106531908034
CO-66
1 32791U 08021J   24364.15332857  .00024185  00000-0  14123-2 0  9999
2 32791  97.7114 335.5387 0005776  28.4333 331.7211 15.11899052905895
RS-30
1 32953U 08025A   24364.79944974  .00000042  00000-0  23101-3 0  9995
2 32953  82.5044 327.8134 0020427  40.4562 319.8033 12.43156119753433
PRISM
1 33493U 09002B   24364.16577458  .00105011  00000-0  23543-2 0  9992
2 33493  98.1743  71.2711 0007509 290.3067  69.7371 15.42990456868845
NOAA-19
1 33591U 09005A   24364.79137008  .00000475  00000-0  27731-3 0  9998
2 33591  99.0223  62.4267 0014695 100.5709 259.7119 14.13243048819251
SRMSAT
1 37841U 11058D   24364.47658159  .00000764  00000-0  27215-3 0  9999
2 37841  19.9729  55.4253 0011968  81.8915 306.1912 14.11322475682180
RS-40
1 38735U 12041C   24364.58664977  .00000057  00000-0  33959-3 0  9999
2 38735  82.4757  48.0405 0018195 150.7105 209.4998 12.42622879563441
ZACUBE-1
1 39417U 13066B   24364.31107831  .00010302  00000-0  96050-3 0  9992
2 39417  97.7604 316.7400 0044890 232.4607 127.2530 14.93652803600668
Delfi-N3xt
1 39428U 13066N   24364.20098766  .00012872  00000-0  14337-2 0  9999
2 39428  97.8387 278.1220 0090870 172.6906 187.5658 14.84211619594956
GOMX-1
1 39430U 13066Q   24364.70699801  .00006544  00000-0  10422-2 0  9994
2 39430  97.7029 227.2052 0135433 350.6373   9.2309 14.66301617591677
LO-74
1 39440U 13066AA  24364.56437393  .00012981  00000-0  13893-2 0  9992
2 39440  97.8338 304.7149 0065467 355.4961   4.5658 14.87253415598537
AO-73
1 39444U 13066AE  24364.61552999  .00014911  00000-0  12443-2 0  9997
2 39444  97.7431 320.8499 0042244 207.4052 152.4942 14.97963364599897
DTUSAT-2
1 40030U 14033W   24364.61026257  .00015913  00000-0  11514-2 0  9999
2 40030  98.0361 323.2981 0007654 243.0265 117.0178 15.04081777572524
EO-80
1 40032U 14033Y   24364.17364502  .00015874  00000-0  11470-2 0  9997
2 40032  98.0250 322.7152 0008638 178.6423 181.4827 15.04128342571928
XW-2C
1 40906U 15049H   24364.77770626  .00219893  00000-0  13893-2 0  9997
2 40906  97.4511  30.1062 0002112 339.6406  20.4775 15.75974975514865
LILACSAT-2
1 40908U 15049K   24364.80939295  .00020753  00000-0  64707-3 0  9998
2 40908  97.5174  15.7991 0011671  28.3981 331.7894 15.33202285513392
IO-86
1 40931U 15052B   24337.09180034  .00002217  00000-0  20975-3 0  9992
2 40931   5.9986 232.5457 0013173 302.5393  57.3463 14.78392648496340
ChubuSat-2
1 41338U 16012B   24364.64352901  .00011906  00000-0  65797-3 0  9992
2 41338  30.9980 208.9428 0010613  41.4894 318.6549 15.12621597487176
ChubuSat-3
1 41339U 16012C   24364.75659059  .00010923  00000-0  62169-3 0  9997
2 41339  31.0043 208.3415 0010717  44.9014 315.2490 15.11549243487158
Horyu-4
1 41340U 16012D   24364.57306699  .00035712  00000-0  13118-2 0  9990
2 41340  30.9993 133.3082 0007512 166.0984 193.9867 15.26707880487923
Lapan A3
1 41603U 16040E   24364.78294819  .00007421  00000-0  27441-3 0  9997
2 41603  97.1380   9.9428 0013090 121.1671 239.0854 15.27899911473061
Pratham
1 41783U 16059A   24364.28891114  .00002179  00000-0  40434-3 0  9994
2 41783  97.8280  14.4980 0033249 119.8970 240.5544 14.65827205441116
CAS-2T
1 41847U 16066G   24364.78549639  .00002800  00000-0  41227-3 0  9992
2 41847  98.4410  74.6022 0348233 307.7419  49.2682 14.42613712427686
CAS-4B
1 42759U 17034B   24364.78458085  .00053014  00000-0  11769-2 0  9995
2 42759  43.0109 190.5689 0016514 246.6975 113.2145 15.42784838417458
CAS-4A
1 42761U 17034D   24364.82665507  .00052902  00000-0  11612-2 0  9994
2 42761  43.0145 188.4211 0017443 253.9485 105.9451 15.43104402417471
D-SAT
1 42794U 17036AF  24363.90687395  .00011878  00000-0  72841-3 0  9998
2 42794  97.4959 339.4546 0099447 204.3817 155.2689 15.06177931409978
TechnoSat
1 42829U 17042E   24364.56361608  .00009362  00000-0  76188-3 0  9996
2 42829  97.3865 175.1805 0014160 126.7678 233.4849 14.99661477406424
AO-91
1 43017U 17073E   24364.57727108  .00021610  00000-0  11868-2 0  9995
2 43017  97.5480 233.6479 0190086 357.5699   2.4581 14.99938297384884
S-Net D
1 43186U 18014G   24363.99724498  .00011719  00000-0  74745-3 0  9995
2 43186  97.5772 262.7505 0011606  65.4744 294.7693 15.08806122377833
S-Net B
1 43187U 18014H   24364.46507962  .00011516  00000-0  73453-3 0  9994
2 43187  97.5781 263.1752 0012263  60.0285 300.2159 15.08802088377909
S-Net A
1 43188U 18014J   24364.46235189  .00011589  00000-0  73881-3 0  9999
2 43188  97.5788 263.3032 0012169  60.8362 299.4082 15.08820402377903
S-Net C
1 43189U 18014K   24364.46715391  .00011686  00000-0  74502-3 0  9997
2 43189  97.5802 263.2935 0013664  53.7850 306.4639 15.08799512376459
Ten-Koh
1 43677U 18084G   24364.41024412  .00007839  00000-0  65324-3 0  9995
2 43677  98.0821 164.3607 0015418  88.8340 271.4648 14.98826607335930
PO-101
1 43678U 18084H   24364.83938129  .00003784  00000-0  33424-3 0  9992
2 43678  98.0874 169.0699 0009826 100.4457 259.7871 14.96965760336174
QO-100
1 43700U 18090A   24364.77271634  .00000170  00000-0  00000+0 0  9995
2 43700   0.0277  28.3851 0002369 297.9612  76.3451  1.00269417 22566
MinXSS-2
1 43758U 18099A   24364.60020204  .00027553  00000-0  13553-2 0  9998
2 43758  97.5284  64.8046 0013881   8.6658 351.4812 15.17894395332336
AO-95
1 43770U 18099N   24364.09662027  .00018652  00000-0  10790-2 0  9990
2 43770  97.5196  58.3064 0013162  58.8548 301.3971 15.12231101331959
RANGE-B
1 43772U 18099Q   24364.42118711  .00032852  00000-0  15002-2 0  9994
2 43772  97.4991  63.2953 0003550 319.9404  40.1569 15.20512832332276
RANGE-A
1 43773U 18099R   24364.61349989  .00011344  00000-0  77302-3 0  9994
2 43773  97.4757  51.7688 0012796  33.5378 326.6657 15.06352457331813
MOVE-II
1 43780U 18099Y   24364.43765896  .00068918  00000-0  20073-2 0  9992
2 43780  97.4939  67.6664 0004694  22.4586 337.6862 15.35132257332669
SNUSat 2
1 43782U 18099AA  24364.40738558  .00015214  00000-0  92662-3 0  9991
2 43782  97.4881  56.5865 0013044   1.4333 358.6932 15.10413493331985
SnugLite
1 43784U 18099AC  24364.42392544  .00018480  00000-0  10628-2 0  9995
2 43784  97.4687  55.9314 0004124  19.8651 340.2740 15.12510661332081
ITASat 1
1 43786U 18099AE  24364.39517314  .00012687  00000-0  79685-3 0  9999
2 43786  97.4839  56.4960 0016633  49.1181 311.1486 15.09286910331960
EAGLET 1
1 43790U 18099AJ  24364.43775413  .00010471  00000-0  71015-3 0  9993
2 43790  97.5035  56.9024 0013374  30.0453 330.1539 15.06542349331632
ESEO
1 43792U 18099AL  24364.52618477  .00004471  00000-0  35009-3 0  9997
2 43792  97.4795  52.2785 0008056   0.6205 359.5028 15.01475904331497
CSIM
1 43793U 18099AM  24364.61392582  .00076688  00000-0  22549-2 0  9997
2 43793  97.5095  69.7274 0008075 349.6755  10.4321 15.34776743332531
